Weather History for Buffalo, WY

Change the Weather History Date:

Thursday, February 14, 2013

  Actual Average Record
Temperature  
Mean Temperature 24 °F 28 °F  
Max Temperature 28 °F 38 °F 51 °F (2011)
Min Temperature 19 °F 18 °F -5 °F (2007)
Degree Days  
Heating Degree Days 41 37  
Month to date heating degree days 515 529  
Since 1 July heating degree days 4393 4736  
Cooling Degree Days 0 0  
Month to date cooling degree days 0 0  
Year to date cooling degree days 0 0  
Moisture  
Dew Point 16 °F    
Average Humidity 71    
Maximum Humidity 92    
Minimum Humidity 50    
Precipitation  
Precipitation 0.02 in 0.01 in 0.02 in (2005)
Month to date precipitation 0.07 0.17  
Year to date precipitation 0.55 0.59  
Sea Level Pressure  
Sea Level Pressure 30.19 in    
Wind  
Wind Speed 15 mph (NNW)    
Max Wind Speed 35 mph    
Max Gust Speed 41 mph    
Visibility 4 miles    
Events Fog , Snow    
T = Trace of Precipitation, MM = Missing Value Source: NWS Daily Summary

Daily Weather History Graph

Daily Weather History Graph

Search for Another Location

Airport:

Trip Planner

Search our weather history database for the weather conditions in past years. The results will help you decide how hot, cold, wet, or windy it might be!

Date:

Astronomy

Feb. 14, 2013 Rise Set
Actual Time 7:07 AM MST 5:35 PM MST
Civil Twilight 6:37 AM MST 6:04 PM MST
Nautical Twilight 6:03 AM MST 6:38 PM MST
Astronomical Twilight 5:30 AM MST 7:12 PM MST
Moon 8:58 AM MST (2/14) 10:55 PM MST (2/14)
Length of Visible Light 11h 27m
Length of Day
10h 27m
Waxing Crescent, 22% of the Moon is Illuminated
Feb 14
Waxing Crescent
Feb 17
First Quarter
Feb 25
Full
Mar 4
Last Quarter
Mar 11
New

Hourly Weather History & Observations

Time (MST) Temp. Windchill Dew Point Humidity Pressure Visibility Wind Dir Wind Speed Gust Speed Precip Events Conditions
12:48 AM 28.4 °F 23.3 °F 24.8 °F 86% 30.00 in 2.5 mi NW 4.6 mph - 0.00 in Snow Light Snow
12:53 AM 27.0 °F - 24.1 °F 89% 30.06 in 3.0 mi Calm Calm - 0.00 in Snow Light Snow
1:05 AM 26.6 °F 21.2 °F 24.8 °F 93% 30.00 in 4.0 mi NNW 4.6 mph - 0.00 in Snow Light Snow
1:31 AM 28.4 °F 20.4 °F 24.8 °F 86% 30.00 in 2.5 mi NW 8.1 mph - 0.00 in Snow Light Snow
1:46 AM 26.6 °F 16.2 °F 24.8 °F 93% 30.02 in 1.8 mi NNW 11.5 mph 17.3 mph 0.01 in Snow Light Snow
1:49 AM 28.4 °F 13.8 °F 24.8 °F 86% 30.03 in 0.8 mi North 25.3 mph 35.7 mph 0.01 in Snow Light Snow
1:53 AM 26.1 °F 9.6 °F 24.1 °F 92% 30.12 in 0.2 mi North 29.9 mph 35.7 mph 0.01 in Fog , Snow Heavy Snow
2:23 AM 23.0 °F 5.7 °F 19.4 °F 86% 30.08 in 0.2 mi NNW 28.8 mph 38.0 mph 0.00 in Fog , Snow Heavy Snow
2:28 AM 23.0 °F 7.2 °F 21.2 °F 93% 30.08 in 0.5 mi NNW 23.0 mph 38.0 mph 0.00 in Fog , Snow Snow
2:38 AM 23.0 °F 7.2 °F 19.4 °F 86% 30.07 in 0.8 mi North 23.0 mph 36.8 mph 0.00 in Snow Light Snow
2:46 AM 23.0 °F 7.2 °F 21.2 °F 93% 30.08 in 1.2 mi NNW 23.0 mph 32.2 mph 0.00 in Snow Light Snow
2:53 AM 23.0 °F 6.6 °F 19.9 °F 88% 30.17 in 1.2 mi NNW 25.3 mph 38.0 mph 0.00 in Snow Light Snow
3:01 AM 23.0 °F 6.6 °F 19.4 °F 86% 30.07 in 1.0 mi NNW 25.3 mph 41.4 mph 0.00 in Snow Light Snow
3:15 AM 23.0 °F 5.7 °F 19.4 °F 86% 30.07 in 1.2 mi NNW 28.8 mph 38.0 mph 0.00 in Snow Light Snow
3:40 AM 23.0 °F 6.9 °F 19.4 °F 86% 30.09 in 1.5 mi NNW 24.2 mph 32.2 mph 0.00 in Snow Light Snow
3:44 AM 21.2 °F 3.9 °F 19.4 °F 93% 30.09 in 0.8 mi NNW 26.5 mph 39.1 mph 0.00 in Snow Light Snow
3:53 AM 21.9 °F 4.8 °F 19.0 °F 89% 30.19 in 0.8 mi North 26.5 mph 36.8 mph 0.00 in Snow Light Snow
4:07 AM 21.2 °F 5.2 °F 19.4 °F 93% 30.10 in 1.0 mi NNW 21.9 mph 28.8 mph 0.00 in Snow Light Snow
4:15 AM 21.2 °F 5.6 °F 17.6 °F 86% 30.10 in 1.5 mi NNW 20.7 mph 38.0 mph 0.00 in Snow Light Snow
4:20 AM 21.2 °F 6.0 °F 17.6 °F 86% 30.10 in 3.0 mi NNW 19.6 mph 36.8 mph 0.00 in Snow Light Snow
4:28 AM 23.0 °F 6.3 °F 17.6 °F 80% 30.10 in 4.0 mi NNW 26.5 mph 38.0 mph 0.00 in   Overcast
4:36 AM 23.0 °F 6.6 °F 17.6 °F 80% 30.11 in 1.8 mi NW 25.3 mph 39.1 mph 0.00 in Snow Light Snow
4:53 AM 23.0 °F 6.9 °F 16.0 °F 74% 30.21 in 2.5 mi NW 24.2 mph 36.8 mph 0.00 in Snow Light Snow
5:01 AM 23.0 °F 6.9 °F 15.8 °F 74% 30.11 in 6.0 mi NW 24.2 mph 29.9 mph 0.00 in   Overcast
5:26 AM 23.0 °F 5.4 °F 14.0 °F 68% 30.10 in 2.5 mi NW 29.9 mph 38.0 mph 0.00 in   Overcast
5:53 AM 23.0 °F 4.9 °F 14.0 °F 68% 30.22 in 1.8 mi NW 32.2 mph 40.3 mph 0.00 in Snow Light Snow
6:12 AM 23.0 °F 5.7 °F 14.0 °F 68% 30.12 in 2.5 mi NW 28.8 mph 38.0 mph 0.00 in   Overcast
6:19 AM 23.0 °F 5.7 °F 14.0 °F 68% 30.12 in 3.0 mi NW 28.8 mph 38.0 mph 0.00 in Snow Blowing Snow
6:29 AM 23.0 °F 5.1 °F 12.2 °F 63% 30.13 in 2.5 mi NW 31.1 mph 38.0 mph 0.00 in   Overcast
6:42 AM 24.8 °F 7.9 °F 10.4 °F 54% 30.14 in 5.0 mi NW 29.9 mph 36.8 mph 0.00 in   Haze
6:53 AM 23.0 °F 5.7 °F 12.0 °F 63% 30.25 in 3.0 mi NW 28.8 mph 41.4 mph 0.00 in   Overcast
7:53 AM 24.1 °F 9.4 °F 9.0 °F 53% 30.28 in 10.0 mi NW 20.7 mph 29.9 mph 0.00 in   Overcast
8:53 AM 21.9 °F 9.2 °F 12.0 °F 66% 30.32 in 10.0 mi NNW 13.8 mph 20.7 mph N/A   Overcast
9:53 AM 21.9 °F 7.3 °F 16.0 °F 78% 30.34 in 10.0 mi North 18.4 mph 21.9 mph N/A   Overcast
10:53 AM 23.0 °F 9.2 °F 12.9 °F 65% 30.35 in 10.0 mi North 17.3 mph 23.0 mph N/A   Overcast
11:53 AM 24.1 °F 13.1 °F 12.0 °F 60% 30.35 in 10.0 mi North 11.5 mph 23.0 mph N/A   Scattered Clouds
12:53 PM 24.1 °F 11.5 °F 10.0 °F 55% 30.33 in 10.0 mi North 15.0 mph 21.9 mph N/A   Scattered Clouds
1:53 PM 23.0 °F 8.3 °F 10.9 °F 60% 30.34 in 10.0 mi North 19.6 mph - N/A   Overcast
2:53 PM 23.0 °F 8.3 °F 9.0 °F 55% 30.35 in 10.0 mi North 19.6 mph 24.2 mph N/A   Mostly Cloudy
3:53 PM 21.9 °F 9.8 °F 8.1 °F 55% 30.37 in 10.0 mi NNW 12.7 mph 23.0 mph N/A   Mostly Cloudy
4:53 PM 21.0 °F 14.6 °F 9.0 °F 60% 30.38 in 10.0 mi North 4.6 mph - N/A   Overcast
5:53 PM 21.0 °F - 7.0 °F 55% 30.38 in 10.0 mi Calm Calm - N/A   Overcast
6:53 PM 19.9 °F 14.9 °F 8.1 °F 60% 30.37 in 10.0 mi SW 3.5 mph - N/A   Overcast
7:53 PM 21.0 °F 16.2 °F 8.1 °F 57% 30.36 in 10.0 mi SSW 3.5 mph - N/A   Overcast
8:53 PM 21.9 °F - 10.0 °F 60% 30.37 in 10.0 mi Calm Calm - N/A   Overcast
9:53 PM 21.0 °F - 12.0 °F 68% 30.37 in 7.0 mi Calm Calm - 0.00 in   Overcast
10:14 PM 21.2 °F - 14.0 °F 74% 30.22 in 2.0 mi Calm Calm - 0.00 in Snow Light Snow
10:21 PM 21.2 °F - 15.8 °F 80% 30.22 in 1.8 mi Calm Calm - 0.00 in Snow Light Snow
10:36 PM 19.4 °F 14.3 °F 15.8 °F 86% 30.22 in 2.0 mi South 3.5 mph - 0.00 in Snow Light Snow
10:53 PM 21.0 °F - 17.1 °F 85% 30.36 in 2.0 mi Calm Calm - 0.00 in Snow Light Snow
11:00 PM 21.2 °F 16.4 °F 17.6 °F 86% 30.22 in 1.8 mi South 3.5 mph - 0.00 in Snow Light Snow
11:16 PM 21.2 °F - 17.6 °F 86% 30.23 in 2.5 mi Calm Calm - 0.01 in Snow Light Snow
11:27 PM 19.4 °F - 15.8 °F 86% 30.23 in 1.5 mi Calm Calm - 0.01 in Snow Light Snow
11:53 PM 19.9 °F 14.9 °F 16.0 °F 85% 30.38 in 1.8 mi NNW 3.5 mph - 0.01 in Snow Light Snow